Munising, MI

8:10 PM EST on February 22, 2017 (GMT -0500)
Munising

Weather History for KP53 - January, 2013

Change the Weather History Date:

Wednesday, January 9, 2013

  Actual Average (KISQ) Record (KISQ)
Temperature  
Mean Temperature 36 °F -  
Max Temperature 39 °F 24 °F 44 °F (2002)
Min Temperature 33 °F 6 °F -14 °F (1982)
Degree Days  
Heating Degree Days 28    
Moisture  
Dew Point 24 °F    
Average Humidity 62    
Maximum Humidity 73    
Minimum Humidity 55    
Precipitation  
Precipitation 0.01 in - - ()
Sea Level Pressure  
Sea Level Pressure 29.97 in    
Wind  
Wind Speed 10 mph (WSW)    
Max Wind Speed 17 mph    
Max Gust Speed 30 mph    
Averages and records for this station are not official NWS values.
T = Trace of Precipitation, MM = Missing Value Source: NWS Daily Summary

Daily Weather History Graph

Daily Weather History Graph

Search for Another Location

Airport or City:

Trip Planner

Search our weather history database for the weather conditions in past years. The results will help you decide how hot, cold, wet, or windy it might be!

Date:

Astronomy

Jan. 09, 2013 Rise Set
Actual Time 8:28 AM EST 5:19 PM EST
Civil Twilight 7:54 AM EST 5:53 PM EST
Nautical Twilight 7:16 AM EST 6:31 PM EST
Astronomical Twilight 6:40 AM EST 7:07 PM EST
Moon 6:07 AM EST (1/9) 3:20 PM EST (1/9)
Length of Visible Light 9h 59m
Length of Day
8h 50m
Waning Crescent, 6% of the Moon is Illuminated
Jan 9
Waning Crescent
Jan 11
New
Jan 18
First Quarter
Jan 26
Full
Feb 3
Last Quarter

Hourly Weather History & Observations

Time (EST) Temp. Windchill Dew Point Humidity Pressure Visibility Wind Dir Wind Speed Gust Speed Precip Events Conditions
12:56 AM 39.0 °F 29.9 °F 30.0 °F 70% 29.76 in - South 17.3 mph 28.8 mph N/A   Unknown
1:56 AM 39.0 °F 33.4 °F 28.9 °F 67% 29.74 in - SSW 8.1 mph 18.4 mph N/A   Unknown
2:56 AM 37.9 °F 33.5 °F 28.9 °F 70% 29.75 in - SSW 5.8 mph - N/A   Unknown
3:56 AM 37.0 °F 31.6 °F 28.9 °F 73% 29.74 in - South 6.9 mph - N/A   Unknown
4:56 AM 37.0 °F 33.3 °F 28.9 °F 73% 29.73 in - South 4.6 mph - N/A   Unknown
5:56 AM 37.0 °F - 28.0 °F 70% 29.73 in - Calm Calm - N/A   Unknown
6:56 AM 37.9 °F 34.4 °F 26.1 °F 62% 29.73 in - WSW 4.6 mph - N/A   Unknown
8:56 AM 36.0 °F 30.3 °F 24.1 °F 62% 29.78 in - SW 6.9 mph - N/A   Unknown
9:56 AM 36.0 °F 29.0 °F 25.0 °F 64% 29.81 in - SW 9.2 mph - N/A   Unknown
10:56 AM 37.0 °F 32.4 °F 24.1 °F 59% 29.82 in - WSW 5.8 mph - N/A   Unknown
11:56 AM 37.0 °F 28.9 °F 23.0 °F 57% 29.83 in - WNW 12.7 mph 19.6 mph N/A   Unknown
12:56 PM 35.1 °F 27.9 °F 27.0 °F 72% 29.87 in - WNW 9.2 mph - 0.01 in   Unknown
1:56 PM 35.1 °F 25.2 °F 21.9 °F 59% 29.92 in - WNW 16.1 mph 29.9 mph N/A   Unknown
2:56 PM 35.1 °F 26.4 °F 21.0 °F 57% 29.97 in - WNW 12.7 mph 20.7 mph N/A   Unknown
3:56 PM 36.0 °F 29.6 °F 21.0 °F 55% 30.04 in - WNW 8.1 mph 19.6 mph N/A   Unknown
4:56 PM 36.0 °F 29.0 °F 21.0 °F 55% 30.10 in - West 9.2 mph 18.4 mph N/A   Unknown
5:56 PM 36.0 °F 28.5 °F 21.0 °F 55% 30.16 in - West 10.4 mph 19.6 mph N/A   Unknown
6:56 PM 36.0 °F 28.5 °F 21.9 °F 57% 30.23 in - WNW 10.4 mph 19.6 mph N/A   Unknown
7:56 PM 35.1 °F 25.5 °F 21.9 °F 59% 30.27 in - WNW 15.0 mph 21.9 mph N/A   Unknown
8:56 PM 35.1 °F 26.9 °F 21.9 °F 59% 30.31 in - WNW 11.5 mph 17.3 mph N/A   Unknown
9:56 PM 34.0 °F 29.8 °F 21.0 °F 59% 30.34 in - Variable 4.6 mph - N/A   Unknown
10:56 PM 34.0 °F 28.8 °F 21.0 °F 59% 30.38 in - SSW 5.8 mph - N/A   Unknown
11:56 PM 33.1 °F 26.9 °F 21.0 °F 61% 30.41 in - West 6.9 mph - N/A   Unknown